Tracking 20369 objects as of 18-Feb-2020
HD Live streaming from Space Station
objects crossing your sky now

COSMOS 1231

Track COSMOS 1231 now!
10-day predictions
COSMOS 1231 is classified as:


NORAD ID: 12110
Int'l Code: 1980-102D
Perigee: 1,412.9 km
Apogee: 1,471.4 km
Inclination: 74.0 °
Period: 114.6 minutes
Semi major axis: 7813 km
RCS: 0.7072 m2 (medium)
Launch date: December 23, 1980
Source: Commonwealth of Independent States (former USSR) (CIS)
Launch site: PLESETSK MISSILE AND SPACE COMPLEX (PKMTR)
aabbcc
Your satellite tracking list
Your tracking list is empty




NASA's NSSDC Master Catalog

Two Line Element Set (TLE):
1 12110U 80102D   20048.53481916 -.00000002 +00000-0 +84077-4 0  9990
2 12110 073.9910 229.3728 0037433 329.0175 085.5465 12.57092524796626
Source of the keplerian elements: AFSPC